Ascension Island, Ascension Island

5:29 PM GMT on July 27, 2016 (GMT +0000)
Ascension Aux Air Base / Wideawake Field | | Change Station

Elev 259 ft 7.97 °S, 14.41 °W | Updated 39 minutes ago

Mostly Cloudy
Mostly Cloudy
77 °F
Feels Like 77 °F
N
21
Wind Variable Wind from SSE

Today
High -- | Low -- °F
--% Chance of Precip.
Yesterday
High -- | Low -- °F
Precip. -- in
Pressure 29.95 in
Visibility 6.2 miles
Clouds Few 2200 ft
Mostly Cloudy 6000 ft
Dew Point 64 °F
Humidity 65%
Rainfall 0.00 in
Snow Depth Not available.
7:11 AM 6:56 PM
Last Quarter, 41% visible
METAR FHAW 271650Z 15018KT 9999 FEW022 BKN060 25/18 Q1014 BLU NOSIG
Pressure 29.95 in
Visibility 6.2 miles
Clouds Few 2200 ft
Mostly Cloudy 6000 ft
Dew Point 64 °F
Humidity 65%
Rainfall 0.00 in
Snow Depth Not available.
7:11 AM 6:56 PM
Last Quarter, 41% visible
METAR FHAW 271650Z 15018KT 9999 FEW022 BKN060 25/18 Q1014 BLU NOSIG

10-Day Weather Forecast

No radar image for this location.
×

Almanac

Astronomy

Jul. 27, 2016 Rise Set
Actual Time
Civil Twilight
Nautical Twilight
Astronomical Twilight
Moon
Length of Visible Light
Length of Day
Tomorrow will be .
, % of the Moon is Illuminated

Today's Extremes

Country Highs Country Lows

Community

WunderPhotos

Upload Photos

1,927,887 photos uploaded!

WunderBlog® & News

Nearby

Air Quality

  Air Quality AQ Index Pollutant
Not available.

Snow Depth

Station Depth Elevation

Earthquake Activity

City Distance Mag. Time & Date
Minimum magnitude displayed is 2.5.

Coastal Water Temperatures

Place Temperature

Stations

Nearby Weather Stations

Station Location Temp. Windchill Dew Point Humidity Wind Precip. Elev Updated Type